Location: L�Ave Maria
(50.7161°N, 1.5911°E)
Time: 00:36:08
(UTC+00:00)

Cosmos 2341 Rocket - Pass Details

Date: 10 July 2020
Orbit: 968 x 1004 km, 82.9° (Epoch: 03 August)

Event Time Altitude Azimuth Distance (km) Brightness Sun altitude
Exits shadow 22:03:40 17° 161° (SSE) 2,239 5.3 -12.9°
Maximum altitude 22:08:18 51° 91° (E) 1,204 4.3 -13.2°
Drops below altitude 10° 22:14:17 10° 18° (NNE) 2,723 7.0 -13.6°
Sets 22:16:51 0° 14° (NNE) 3,674 7.9 -13.8°
